DELTA 1 DEB

Satellite information

Favourite Embed

Satellite Type and Status

DEBRISIN ORBIT

Key statistics

Satellite DELTA 1 DEB at a glance.

Uptime

17394

Days in orbit

Revolutions

≈ 14.1

Per day

Orbit

SSO

Sun Synchronous Orbit

Inclination

98.9

Latest

Satellite identification and parameters

Extended collection of information and parameters for DELTA 1 DEB.

Object identification

Identified? True

Debris? True

Object name: DELTA 1 DEB

International designator: 1978-026HZ

Object number (NORAD): 37638

Object ID (CCSDS): 37638

Country: UNITED STATES OF AMERICA (US)

Current information (Y/N): Y

RCS size: SMALL

Orbital parameters

Period: 101.868 minutes

Inclination: 98.8554 deg

SMA: 7225.234 km

Apoapsis: 887.953 km

Periapsis: 806.244 km

RAAN: 163.0545 deg

Eccentricy: 0.00565437

Argument of periapsis: 129.8167 deg

Mean anomaly: 230.8001 deg

Mean motion: 14.13594746 rev/day

Mean motion (dot): 0.00001276 rev/day2

B* drag term: 0.00068929725 1/REarth

Two-line elements (TLE)

Creation date: Sept. 23, 2025, 3:43 a.m.

Reference frame: TEME

Reference center: EARTH

Epoch: Sept. 20, 2025, 10:45 p.m. UTC

TLE line 0: 0 DELTA 1 DEB

TLE line 1: 1 37638U 78026HZ 25263.94830293 .00001276 00000-0 68930-3 0 9991

TLE line 2: 2 37638 98.8554 163.0545 0056544 129.8167 230.8001 14.13594746560616

Live tracking on map

Real-time ground track for satellite DELTA 1 DEB.

In-orbit conjunctions

A list of the most updated potential collisions computed for object DELTA 1 DEB.

Target Orbit TCA Probability of collision Miss distance Type
SL-16 R/B LEO 2025-04-08 09:40:06 0.0001117206 625.0 (m) ROCKET BODY

Associated space launch

Earth observation satellite

DELTA 1 DEB was lifted into orbit during the mission ‘Delta 2910 | Landsat 3’, on board a Delta 2910 space rocket.

The launch took place on March 5, 1978, 5:54 p.m. from Space Launch Complex 2W.

For more information about the launch, click the button.

Launch to space Delta 2910 | Landsat 3
Delta 2910 | Landsat 3

Agency: N/A

Status: Launch Successful

Launch date: March 5, 1978, 5:54 p.m. UTC

Rocket: Delta 2910

Launch pad: Space Launch Complex 2W

Location: Vandenberg SFB, CA, USA

...

Latest news about this satellite

There are no fresh news available about this satellite. Check back as we update our databases every day.


Newsletter sign-up

Weekly statistics, charts and insights to help you stay on top of the space industry.